Starlink 1672

operational
NORAD ID: 46537 Int'l Des: 2020-070 Owner: SPXS Country: US Constellation: starlink
LEOCIRCULARSTARLINK_TYPE

About Starlink 1672

Description loading...

Live Position

Loading 3D Globe...

Upcoming Passes

Altitude History

Altitude vs Time

uPlot chart will show altitude changes over time

Two-Line Element Set

1 46537U 20070F 25258.26990604 .00000297 00000-0 38856-4 0 9994
2 46537 53.0544 244.1116 0001265 87.5846 272.5288 15.06394296273066
Epoch: Sep 15, 2025 • Age: 14 hours

Current Status

Altitude 556.5 km
Velocity 7.58 km/s
Sub-Earth Point -29.08°S, 87.83°W
Launch Date Oct 6, 2020
Age 4.9 years
Type internet

Technical Details

Classification Payload
Mass 260.00 kg
Dry Mass 248.00 kg
Total Mass 260.00 kg
Length 0.20 m
Diameter 2.80 m
Span 9.00 m
Shape Box + pan
Manufacturer SPXS
Bus Type Starlink
Phase Status In Orbit
Owner/State SPXS/US

Large Constellations

Loading constellations...